Location: Unspecified
(0.0000°N, 0.0000°E)
Time: 17:50:24
(UTC+00:00)

Vanguard 1 Rocket - Pass Details

Date: 25 April 2026
Orbit: 655 x 4212 km, 34.3° (Epoch: 17 May)

Event Time Altitude Azimuth Distance (km) Brightness Sun altitude
Rises 22:21:11 0° 305° (NW) 8,076 12.6 -62.5°
Reaches altitude 10° 22:29:36 10° 319° (NW) 7,334 12.2 -64.3°
Maximum altitude 22:47:24 22° 3° (N) 6,231 11.6 -68.0°
Drops below altitude 10° 23:02:37 10° 47° (NE) 6,310 11.6 -70.8°
Sets 23:08:52 0° 62° (ENE) 6,759 11.8 -71.9°
